| time (UTC) | temp F | wind direction | speed MPH | gust MPH | rain 1hr in | rain 24hr in | rain mn in | humidity % | barometer mb |
| 20260506025142 | 34 | 69 | 3.0 | 3.0 | 0.00 | 0.00 | 0.00 | 96 | 1005.1 |
| 20260506024640 | 34 | 84 | 3.0 | 4.0 | 0.00 | 0.00 | 0.00 | 96 | 1005.0 |
| 20260506024136 | 34 | 92 | 4.0 | 4.0 | 0.00 | 0.00 | 0.00 | 96 | 1005.0 |
| 20260506023632 | 34 | 82 | 3.0 | 4.0 | 0.00 | 0.00 | 0.00 | 96 | 1005.2 |
| 20260506023129 | 34 | 73 | 3.0 | 4.0 | 0.00 | 0.00 | 0.00 | 96 | 1005.3 |
| 20260506022627 | 34 | 79 | 4.0 | 4.0 | 0.00 | 0.00 | 0.00 | 96 | 1005.2 |
| 20260506022124 | 34 | 76 | 4.0 | 5.0 | 0.00 | 0.00 | 0.00 | 96 | 1005.0 |
| 20260506021622 | 34 | 77 | 4.0 | 5.0 | 0.00 | 0.00 | 0.00 | 96 | 1004.9 |
| 20260506021119 | 34 | 79 | 3.0 | 4.0 | 0.00 | 0.00 | 0.00 | 96 | 1005.0 |
| 20260506020616 | 34 | 69 | 4.0 | 4.0 | 0.00 | 0.00 | 0.00 | 95 | 1005.0 |
| 20260506020113 | 34 | 72 | 4.0 | 4.0 | 0.00 | 0.00 | 0.00 | 95 | 1004.8 |
| 20260506015611 | 35 | 69 | 4.0 | 4.0 | 0.00 | 0.00 | 0.00 | 95 | 1004.7 |
| 20260506015107 | 35 | 76 | 4.0 | 6.0 | 0.00 | 0.00 | 0.00 | 95 | 1004.8 |
| 20260506014605 | 35 | 77 | 5.0 | 5.0 | 0.00 | 0.00 | 0.00 | 95 | 1004.9 |
| 20260506014100 | 35 | 71 | 5.0 | 6.0 | 0.00 | 0.00 | 0.00 | 95 | 1004.6 |
| 20260506013559 | 35 | 56 | 6.0 | 6.0 | 0.00 | 0.00 | 0.00 | 95 | 1004.8 |
| 20260506013055 | 35 | 54 | 5.0 | 6.0 | 0.00 | 0.00 | 0.00 | 95 | 1004.8 |
| 20260506012551 | 35 | 71 | 4.0 | 5.0 | 0.00 | 0.00 | 0.00 | 94 | 1004.7 |
| 20260506012048 | 35 | 64 | 4.0 | 5.0 | 0.00 | 0.00 | 0.00 | 94 | 1004.7 |
| 20260506011546 | 35 | 84 | 4.0 | 4.0 | 0.00 | 0.00 | 0.00 | 94 | 1004.5 |
| 20260506011042 | 35 | 85 | 3.0 | 4.0 | 0.00 | 0.00 | 0.00 | 94 | 1004.6 |
| 20260506010542 | 35 | 55 | 3.0 | 4.0 | 0.00 | 0.00 | 0.00 | 94 | 1004.5 |
| 20260506010038 | 35 | 69 | 3.0 | 3.0 | 0.00 | 0.00 | 0.00 | 94 | 1004.5 |
| 20260506005535 | 35 | 92 | 3.0 | 4.0 | 0.00 | 0.00 | 0.00 | 94 | 1004.7 |
| 20260506005031 | 35 | 63 | 2.0 | 3.0 | 0.00 | 0.00 | 0.00 | 94 | 1004.4 |
| 20260506004528 | 35 | 65 | 4.0 | 5.0 | 0.00 | 0.00 | 0.00 | 94 | 1004.6 |
| 20260506004025 | 35 | 60 | 4.0 | 4.0 | 0.00 | 0.00 | 0.00 | 94 | 1004.6 |
| 20260506003521 | 35 | 43 | 3.0 | 3.0 | 0.00 | 0.00 | 0.00 | 94 | 1004.3 |
| 20260506003017 | 35 | 45 | 0.0 | 3.0 | 0.00 | 0.00 | 0.00 | 94 | 1004.5 |
| 20260506002514 | 35 | 78 | 2.0 | 3.0 | 0.00 | 0.00 | 0.00 | 94 | 1004.5 |
| 20260506002009 | 35 | 83 | 2.0 | 3.0 | 0.00 | 0.00 | 0.00 | 94 | 1004.2 |
| 20260506001506 | 35 | 74 | 2.0 | 4.0 | 0.00 | 0.00 | 0.00 | 94 | 1004.5 |
| 20260506001004 | 35 | 84 | 4.0 | 4.0 | 0.00 | 0.00 | 0.00 | 94 | 1004.5 |
| 20260506000501 | 35 | 64 | 4.0 | 6.0 | 0.00 | 0.00 | 0.00 | 94 | 1004.2 |
| 20260505235957 | 35 | 71 | 4.0 | 4.0 | 0.00 | 0.00 | 0.00 | 94 | 1004.3 |
| 20260505235456 | 35 | 71 | 4.0 | 4.0 | 0.00 | 0.00 | 0.00 | 94 | 1004.3 |
| 20260505234952 | 35 | 77 | 4.0 | 4.0 | 0.00 | 0.00 | 0.00 | 94 | 1004.0 |
| 20260505234450 | 35 | 59 | 4.0 | 4.0 | 0.00 | 0.00 | 0.00 | 94 | 1004.2 |
| 20260505233946 | 35 | 74 | 3.0 | 4.0 | 0.00 | 0.00 | 0.00 | 93 | 1004.1 |
| 20260505233444 | 35 | 69 | 5.0 | 6.0 | 0.00 | 0.00 | 0.00 | 93 | 1003.9 |
| 20260505232941 | 35 | 74 | 4.0 | 6.0 | 0.00 | 0.00 | 0.00 | 93 | 1004.1 |
| 20260505232439 | 35 | 68 | 6.0 | 7.0 | 0.00 | 0.00 | 0.00 | 93 | 1004.0 |
| 20260505231936 | 35 | 75 | 5.0 | 7.0 | 0.00 | 0.00 | 0.00 | 93 | 1004.0 |
| 20260505231433 | 35 | 70 | 4.0 | 6.0 | 0.00 | 0.00 | 0.00 | 92 | 1004.1 |
| 20260505230931 | 36 | 73 | 4.0 | 5.0 | 0.00 | 0.00 | 0.00 | 92 | 1003.9 |
| 20260505230429 | 36 | 77 | 5.0 | 6.0 | 0.00 | 0.00 | 0.00 | 92 | 1003.9 |
| 20260505225925 | 36 | 71 | 6.0 | 7.0 | 0.00 | 0.00 | 0.00 | 92 | 1004.1 |
| 20260505225422 | 36 | 64 | 6.0 | 7.0 | 0.00 | 0.00 | 0.00 | 92 | 1003.9 |
| 20260505224917 | 36 | 81 | 3.0 | 5.0 | 0.00 | 0.00 | 0.00 | 92 | 1004.0 |
| 20260505224415 | 36 | 71 | 6.0 | 6.0 | 0.00 | 0.00 | 0.00 | 91 | 1003.9 |
| 20260505223912 | 37 | 78 | 4.0 | 6.0 | 0.00 | 0.00 | 0.00 | 91 | 1003.9 |
| 20260505223409 | 37 | 80 | 4.0 | 6.0 | 0.00 | 0.00 | 0.00 | 90 | 1003.9 |
| 20260505222905 | 37 | 70 | 4.0 | 6.0 | 0.00 | 0.00 | 0.00 | 89 | 1003.9 |
| 20260505222401 | 37 | 70 | 6.0 | 7.0 | 0.00 | 0.00 | 0.00 | 88 | 1003.8 |
| 20260505221858 | 37 | 52 | 4.0 | 4.0 | 0.00 | 0.00 | 0.00 | 87 | 1003.9 |
| 20260505221355 | 38 | 47 | 4.0 | 5.0 | 0.00 | 0.00 | 0.00 | 85 | 1003.7 |
| 20260505220852 | 38 | 38 | 2.0 | 3.0 | 0.00 | 0.00 | 0.00 | 83 | 1003.5 |
| 20260505220349 | 38 | 20 | 4.0 | 6.0 | 0.00 | 0.00 | 0.00 | 83 | 1003.7 |
| 20260505215847 | 38 | 77 | 2.0 | 3.0 | 0.00 | 0.01 | 0.01 | 82 | 1003.7 |
| 20260505215345 | 38 | 106 | 3.0 | 4.0 | 0.00 | 0.01 | 0.01 | 82 | 1003.6 |
| 20260505214843 | 38 | 96 | 2.0 | 4.0 | 0.00 | 0.01 | 0.01 | 82 | 1003.6 |
| 20260505214340 | 38 | 269 | 0.0 | 2.0 | 0.00 | 0.01 | 0.01 | 81 | 1003.7 |
| 20260505213837 | 39 | 262 | 0.0 | 6.0 | 0.00 | 0.01 | 0.01 | 82 | 1003.5 |
| 20260505213335 | 39 | 94 | 2.0 | 2.0 | 0.00 | 0.01 | 0.01 | 81 | 1003.6 |
| 20260505212830 | 39 | 84 | 1.0 | 6.0 | 0.00 | 0.01 | 0.01 | 81 | 1003.4 |
| 20260505212328 | 39 | 112 | 3.0 | 3.0 | 0.00 | 0.01 | 0.01 | 81 | 1003.5 |
| 20260505211824 | 39 | 112 | 0.0 | 3.0 | 0.00 | 0.01 | 0.01 | 81 | 1003.4 |
| 20260505211322 | 39 | 115 | 4.0 | 5.0 | 0.00 | 0.01 | 0.01 | 81 | 1003.4 |
| 20260505210818 | 39 | 117 | 3.0 | 4.0 | 0.00 | 0.01 | 0.01 | 80 | 1003.4 |
| 20260505210315 | 39 | 93 | 2.0 | 6.0 | 0.00 | 0.01 | 0.01 | 78 | 1003.3 |
| 20260505205812 | 39 | 121 | 3.0 | 5.0 | 0.00 | 0.01 | 0.01 | 78 | 1003.4 |
| 20260505205310 | 39 | 341 | 1.0 | 4.0 | 0.00 | 0.01 | 0.01 | 78 | 1003.3 |
| 20260505204806 | 39 | 102 | 5.0 | 5.0 | 0.00 | 0.01 | 0.01 | 78 | 1003.2 |
| 20260505204304 | 39 | 91 | 3.0 | 5.0 | 0.00 | 0.01 | 0.01 | 78 | 1003.1 |
| 20260505203801 | 39 | 95 | 3.0 | 4.0 | 0.00 | 0.01 | 0.01 | 78 | 1003.0 |
| 20260505203258 | 39 | 104 | 3.0 | 5.0 | 0.00 | 0.01 | 0.01 | 78 | 1003.0 |
| 20260505202754 | 39 | 91 | 5.0 | 7.0 | 0.00 | 0.01 | 0.01 | 78 | 1003.1 |
| 20260505202250 | 39 | 107 | 4.0 | 6.0 | 0.00 | 0.01 | 0.01 | 78 | 1002.9 |
| 20260505201747 | 39 | 89 | 4.0 | 5.0 | 0.00 | 0.01 | 0.01 | 78 | 1002.9 |
| 20260505201244 | 39 | 95 | 5.0 | 5.0 | 0.00 | 0.01 | 0.01 | 77 | 1002.9 |
| 20260505200743 | 39 | 89 | 4.0 | 6.0 | 0.00 | 0.01 | 0.01 | 77 | 1002.8 |
| 20260505200240 | 39 | 100 | 3.0 | 6.0 | 0.00 | 0.01 | 0.01 | 76 | 1002.8 |
| 20260505195735 | 39 | 78 | 2.0 | 7.0 | 0.00 | 0.01 | 0.01 | 76 | 1002.9 |
| 20260505195233 | 40 | 93 | 5.0 | 6.0 | 0.00 | 0.01 | 0.01 | 75 | 1002.8 |
| 20260505194730 | 40 | 89 | 3.0 | 5.0 | 0.00 | 0.01 | 0.01 | 74 | 1002.8 |
| 20260505194226 | 40 | 62 | 2.0 | 4.0 | 0.00 | 0.01 | 0.01 | 73 | 1003.0 |
| 20260505193722 | 40 | 83 | 2.0 | 6.0 | 0.00 | 0.01 | 0.01 | 73 | 1002.8 |
| 20260505193219 | 40 | 80 | 2.0 | 3.0 | 0.00 | 0.01 | 0.01 | 73 | 1002.8 |
| 20260505192718 | 40 | 123 | 5.0 | 6.0 | 0.00 | 0.01 | 0.01 | 72 | 1002.7 |
| 20260505192215 | 40 | 144 | 2.0 | 3.0 | 0.00 | 0.01 | 0.01 | 71 | 1002.7 |
| 20260505191713 | 40 | 139 | 3.0 | 6.0 | 0.00 | 0.01 | 0.01 | 71 | 1002.8 |
| 20260505191211 | 40 | 105 | 4.0 | 5.0 | 0.00 | 0.01 | 0.01 | 71 | 1002.6 |
| 20260505190708 | 41 | 125 | 3.0 | 6.0 | 0.00 | 0.01 | 0.01 | 71 | 1002.8 |
| 20260505190207 | 41 | 36 | 0.0 | 6.0 | 0.00 | 0.01 | 0.01 | 71 | 1002.7 |
| 20260505185704 | 41 | 80 | 3.0 | 4.0 | 0.00 | 0.01 | 0.01 | 71 | 1002.6 |
| 20260505185200 | 41 | 118 | 5.0 | 5.0 | 0.00 | 0.01 | 0.01 | 71 | 1002.6 |
| 20260505184657 | 41 | 94 | 3.0 | 6.0 | 0.00 | 0.01 | 0.01 | 70 | 1002.5 |
| 20260505184154 | 41 | 142 | 3.0 | 5.0 | 0.00 | 0.01 | 0.01 | 70 | 1002.5 |
| 20260505183651 | 41 | 52 | 3.0 | 5.0 | 0.00 | 0.01 | 0.01 | 69 | 1002.5 |
| 20260505183148 | 41 | 102 | 3.0 | 4.0 | 0.00 | 0.01 | 0.01 | 67 | 1002.4 |
| 20260505182645 | 41 | 91 | 4.0 | 6.0 | 0.00 | 0.01 | 0.01 | 66 | 1002.3 |
| 20260505182142 | 41 | 62 | 5.0 | 5.0 | 0.00 | 0.01 | 0.01 | 67 | 1002.3 |
| 20260505181638 | 41 | 54 | 2.0 | 4.0 | 0.00 | 0.01 | 0.01 | 67 | 1002.5 |
| 20260505181135 | 41 | 346 | 3.0 | 3.0 | 0.00 | 0.01 | 0.01 | 68 | 1002.2 |
| 20260505180631 | 41 | 103 | 0.0 | 4.0 | 0.00 | 0.01 | 0.01 | 71 | 1002.2 |
| 20260505180129 | 42 | 123 | 4.0 | 7.0 | 0.00 | 0.01 | 0.01 | 66 | 1002.3 |
| 20260505175625 | 42 | 125 | 3.0 | 5.0 | 0.00 | 0.01 | 0.01 | 66 | 1002.2 |
| 20260505175122 | 42 | 144 | 6.0 | 6.0 | 0.00 | 0.01 | 0.01 | 61 | 1002.2 |
| 20260505174618 | 43 | 103 | 3.0 | 3.0 | 0.00 | 0.01 | 0.01 | 58 | 1002.2 |
| 20260505174114 | 43 | 122 | 0.0 | 3.0 | 0.00 | 0.01 | 0.01 | 59 | 1002.1 |
| 20260505173611 | 43 | 262 | 0.0 | 3.0 | 0.00 | 0.01 | 0.01 | 58 | 1002.0 |
| 20260505173108 | 43 | 24 | 0.0 | 3.0 | 0.00 | 0.01 | 0.01 | 61 | 1002.0 |
| 20260505172606 | 43 | 282 | 2.0 | 3.0 | 0.00 | 0.01 | 0.01 | 60 | 1002.0 |
| 20260505172102 | 43 | 277 | 0.0 | 3.0 | 0.00 | 0.01 | 0.01 | 62 | 1002.1 |
| 20260505171556 | 43 | 258 | 2.0 | 5.0 | 0.00 | 0.01 | 0.01 | 61 | 1001.9 |
| 20260505171054 | 43 | 278 | 3.0 | 6.0 | 0.00 | 0.01 | 0.01 | 64 | 1002.0 |
| 20260505170551 | 43 | 258 | 5.0 | 7.0 | 0.00 | 0.01 | 0.01 | 62 | 1002.0 |
| 20260505170047 | 43 | 269 | 5.0 | 7.0 | 0.00 | 0.01 | 0.01 | 62 | 1002.0 |
| 20260505165542 | 43 | 305 | 5.0 | 6.0 | 0.00 | 0.01 | 0.01 | 59 | 1001.9 |
| 20260505165038 | 44 | 267 | 4.0 | 6.0 | 0.00 | 0.01 | 0.01 | 60 | 1001.9 |
| 20260505164534 | 44 | 267 | 8.0 | 9.0 | 0.00 | 0.01 | 0.01 | 60 | 1001.9 |
| 20260505164032 | 44 | 289 | 6.0 | 9.0 | 0.00 | 0.01 | 0.01 | 60 | 1001.7 |
| 20260505163531 | 44 | 290 | 8.0 | 9.0 | 0.00 | 0.01 | 0.01 | 61 | 1001.5 |
| 20260505163027 | 44 | 279 | 7.0 | 10.0 | 0.00 | 0.01 | 0.01 | 60 | 1001.7 |
| 20260505162520 | 44 | 286 | 10.0 | 10.0 | 0.00 | 0.01 | 0.01 | 60 | 1001.7 |
| 20260505162017 | 44 | 258 | 6.0 | 9.0 | 0.00 | 0.01 | 0.01 | 60 | 1001.8 |
| 20260505161514 | 44 | 286 | 5.0 | 9.0 | 0.00 | 0.01 | 0.01 | 62 | 1001.5 |
| 20260505161011 | 44 | 264 | 7.0 | 8.0 | 0.00 | 0.01 | 0.01 | 61 | 1001.7 |
| 20260505160509 | 44 | 274 | 5.0 | 10.0 | 0.00 | 0.01 | 0.01 | 60 | 1001.6 |
| 20260505152945 | 44 | 289 | 10.0 | 10.0 | 0.00 | 0.01 | 0.01 | 64 | 1001.5 |
| 20260505152443 | 44 | 290 | 7.0 | 9.0 | 0.00 | 0.01 | 0.01 | 64 | 1001.4 |
| 20260505151943 | 44 | 278 | 7.0 | 8.0 | 0.00 | 0.01 | 0.01 | 64 | 1001.6 |
| 20260505151439 | 44 | 294 | 8.0 | 9.0 | 0.00 | 0.01 | 0.01 | 61 | 1001.3 |
| 20260505150937 | 44 | 288 | 7.0 | 9.0 | 0.00 | 0.01 | 0.01 | 60 | 1001.4 |
| 20260505150433 | 44 | 279 | 6.0 | 10.0 | 0.00 | 0.01 | 0.01 | 62 | 1001.3 |
| 20260505140404 | 44 | 282 | 6.0 | 8.0 | 0.00 | 0.01 | 0.01 | 61 | 1000.9 |
| 20260505124817 | 44 | 263 | 8.0 | 12.0 | 0.00 | 0.01 | 0.01 | 67 | 1000.3 |
| 20260505124314 | 44 | 267 | 7.0 | 12.0 | 0.00 | 0.01 | 0.01 | 68 | 1000.6 |
| 20260505123810 | 44 | 274 | 9.0 | 10.0 | 0.00 | 0.01 | 0.01 | 67 | 1000.6 |
| 20260505123306 | 44 | 270 | 8.0 | 12.0 | 0.00 | 0.01 | 0.01 | 67 | 1000.2 |
| 20260505122803 | 45 | 297 | 8.0 | 9.0 | 0.00 | 0.01 | 0.01 | 66 | 1000.4 |
| 20260505122300 | 44 | 286 | 7.0 | 11.0 | 0.00 | 0.01 | 0.01 | 69 | 1000.3 |
| 20260505121756 | 44 | 294 | 7.0 | 9.0 | 0.00 | 0.01 | 0.01 | 70 | 1000.3 |
| 20260505121253 | 43 | 289 | 6.0 | 8.0 | 0.00 | 0.01 | 0.01 | 69 | 1000.4 |
| 20260505120750 | 43 | 282 | 5.0 | 6.0 | 0.00 | 0.01 | 0.01 | 70 | 1000.2 |
| 20260505120246 | 43 | 262 | 8.0 | 11.0 | 0.00 | 0.01 | 0.01 | 71 | 1000.4 |
| 20260505115745 | 42 | 275 | 7.0 | 9.0 | 0.00 | 0.01 | 0.01 | 73 | 1000.2 |
| 20260505115242 | 42 | 295 | 6.0 | 7.0 | 0.00 | 0.01 | 0.01 | 72 | 1000.1 |
| 20260505114740 | 42 | 316 | 4.0 | 7.0 | 0.00 | 0.01 | 0.01 | 73 | 1000.2 |
| 20260505114235 | 42 | 306 | 2.0 | 4.0 | 0.00 | 0.01 | 0.01 | 73 | 999.9 |
| 20260505113732 | 42 | 57 | 2.0 | 7.0 | 0.00 | 0.01 | 0.01 | 69 | 1000.1 |
| 20260505113229 | 42 | 337 | 3.0 | 5.0 | 0.00 | 0.01 | 0.01 | 73 | 1000.1 |
| 20260505112725 | 42 | 327 | 5.0 | 6.0 | 0.00 | 0.01 | 0.01 | 75 | 999.9 |
| 20260505112223 | 42 | 283 | 3.0 | 6.0 | 0.00 | 0.01 | 0.01 | 72 | 1000.0 |
| 20260505111723 | 43 | 306 | 3.0 | 5.0 | 0.00 | 0.01 | 0.01 | 73 | 1000.0 |
| 20260505111219 | 42 | 320 | 2.0 | 5.0 | 0.00 | 0.01 | 0.01 | 75 | 999.9 |
| 20260505110715 | 42 | 295 | 3.0 | 6.0 | 0.00 | 0.01 | 0.01 | 73 | 999.8 |
| 20260505110213 | 42 | 296 | 4.0 | 5.0 | 0.00 | 0.01 | 0.01 | 76 | 999.9 |
| 20260505102148 | 42 | 289 | 2.0 | 3.0 | 0.00 | 0.01 | 0.01 | 74 | 999.7 |
| 20260505101647 | 42 | 257 | 0.0 | 3.0 | 0.00 | 0.01 | 0.01 | 75 | 999.6 |
| 20260505101143 | 42 | 21 | 0.0 | 2.0 | 0.00 | 0.01 | 0.01 | 72 | 999.5 |
| 20260505100639 | 43 | 308 | 2.0 | 3.0 | 0.00 | 0.01 | 0.01 | 75 | 999.5 |
| 20260505100136 | 42 | 105 | 0.0 | 2.0 | 0.00 | 0.01 | 0.01 | 76 | 999.5 |
| 20260505095632 | 42 | 244 | 0.0 | 3.0 | 0.00 | 0.01 | 0.01 | 74 | 999.5 |
| 20260505095129 | 43 | 266 | 1.0 | 3.0 | 0.00 | 0.01 | 0.01 | 74 | 999.3 |
| 20260505094625 | 42 | 81 | 2.0 | 2.0 | 0.00 | 0.01 | 0.01 | 78 | 999.3 |
| 20260505094122 | 41 | 2 | 2.0 | 2.0 | 0.00 | 0.01 | 0.01 | 78 | 999.4 |
| 20260505093618 | 41 | 12 | 0.0 | 2.0 | 0.00 | 0.01 | 0.01 | 79 | 999.1 |
| 20260505093115 | 41 | 295 | 0.0 | 2.0 | 0.00 | 0.01 | 0.01 | 79 | 999.2 |
| 20260505092612 | 41 | 89 | 2.0 | 3.0 | 0.00 | 0.01 | 0.01 | 79 | 999.2 |
| 20260505092112 | 40 | 63 | 2.0 | 3.0 | 0.00 | 0.01 | 0.01 | 80 | 999.3 |
| 20260505091607 | 40 | 220 | 1.0 | 2.0 | 0.00 | 0.01 | 0.01 | 81 | 999.4 |
| 20260505091106 | 41 | 302 | 0.0 | 2.0 | 0.00 | 0.01 | 0.01 | 84 | 999.3 |
| 20260505090603 | 40 | 111 | 0.0 | 3.0 | 0.00 | 0.01 | 0.01 | 83 | 999.2 |
| 20260505090101 | 40 | 26 | 0.0 | 2.0 | 0.00 | 0.01 | 0.01 | 84 | 999.3 |
| 20260505085558 | 40 | 321 | 0.0 | 3.0 | 0.00 | 0.01 | 0.01 | 83 | 999.1 |
| 20260505085057 | 40 | 6 | 2.0 | 3.0 | 0.00 | 0.01 | 0.01 | 83 | 999.2 |
| 20260505084554 | 39 | 54 | 2.0 | 5.0 | 0.00 | 0.01 | 0.01 | 85 | 999.2 |
| 20260505084052 | 39 | 26 | 3.0 | 4.0 | 0.00 | 0.01 | 0.01 | 88 | 999.0 |
| 20260505083549 | 39 | 37 | 3.0 | 3.0 | 0.00 | 0.01 | 0.01 | 89 | 999.2 |
| 20260505083046 | 38 | 345 | 0.0 | 3.0 | 0.00 | 0.01 | 0.01 | 89 | 999.0 |
| 20260505082541 | 38 | 14 | 2.0 | 3.0 | 0.00 | 0.01 | 0.01 | 90 | 999.2 |
| 20260505082039 | 38 | 313 | 2.0 | 2.0 | 0.00 | 0.01 | 0.01 | 91 | 999.0 |
| 20260505081535 | 38 | 332 | 3.0 | 3.0 | 0.00 | 0.01 | 0.01 | 91 | 999.0 |
| 20260505081032 | 38 | 332 | 2.0 | 4.0 | 0.00 | 0.01 | 0.01 | 91 | 999.0 |
| 20260505080528 | 38 | 330 | 0.0 | 2.0 | 0.00 | 0.01 | 0.01 | 92 | 998.9 |
| 20260505080025 | 37 | 332 | 2.0 | 3.0 | 0.00 | 0.01 | 0.01 | 92 | 999.0 |
| 20260505075521 | 37 | 279 | 0.0 | 2.0 | 0.00 | 0.01 | 0.01 | 92 | 998.9 |
| 20260505075018 | 37 | 263 | 1.0 | 2.0 | 0.00 | 0.01 | 0.01 | 93 | 998.8 |
| 20260505074515 | 37 | 121 | 2.0 | 3.0 | 0.00 | 0.01 | 0.01 | 94 | 998.8 |
| 20260505074012 | 37 | 100 | 0.0 | 3.0 | 0.00 | 0.01 | 0.01 | 95 | 998.8 |
| 20260505073510 | 36 | 107 | 2.0 | 2.0 | 0.00 | 0.01 | 0.01 | 94 | 998.7 |
| 20260505073008 | 36 | 99 | 2.0 | 3.0 | 0.00 | 0.01 | 0.01 | 95 | 998.8 |
| 20260505072503 | 36 | 31 | 0.0 | 2.0 | 0.00 | 0.01 | 0.01 | 95 | 998.8 |
| 20260505071959 | 36 | 66 | 2.0 | 3.0 | 0.00 | 0.01 | 0.01 | 95 | 998.8 |
| 20260505071455 | 36 | 57 | 1.0 | 2.0 | 0.00 | 0.01 | 0.01 | 95 | 998.7 |
| 20260505070953 | 35 | 79 | 1.0 | 2.0 | 0.00 | 0.01 | 0.01 | 95 | 998.7 |
| 20260505070450 | 35 | 66 | 3.0 | 3.0 | 0.00 | 0.01 | 0.01 | 95 | 998.9 |
| 20260505065946 | 35 | 59 | 3.0 | 3.0 | 0.00 | 0.01 | 0.01 | 96 | 998.7 |
| 20260505065442 | 35 | 40 | 2.0 | 4.0 | 0.00 | 0.01 | 0.01 | 96 | 998.7 |
| 20260505064939 | 35 | 88 | 1.0 | 2.0 | 0.00 | 0.01 | 0.01 | 96 | 998.7 |
| 20260505064436 | 35 | 72 | 2.0 | 3.0 | 0.00 | 0.01 | 0.01 | 96 | 998.6 |
| 20260505063934 | 34 | 121 | 2.0 | 2.0 | 0.00 | 0.01 | 0.01 | 96 | 998.5 |
| 20260505063431 | 34 | 55 | 0.0 | 3.0 | 0.00 | 0.01 | 0.01 | 96 | 998.5 |
| 20260505062927 | 34 | 54 | 2.0 | 3.0 | 0.00 | 0.01 | 0.01 | 95 | 998.6 |
| 20260505062425 | 34 | 72 | 3.0 | 4.0 | 0.00 | 0.01 | 0.01 | 95 | 998.6 |
| 20260505061921 | 34 | 51 | 3.0 | 3.0 | 0.00 | 0.01 | 0.01 | 95 | 998.5 |
| 20260505061419 | 34 | 61 | 2.0 | 3.0 | 0.00 | 0.01 | 0.01 | 95 | 998.5 |
| 20260505060917 | 34 | 45 | 5.0 | 5.0 | 0.00 | 0.01 | 0.01 | 95 | 998.6 |
| 20260505060413 | 34 | 102 | 2.0 | 3.0 | 0.00 | 0.01 | 0.01 | 95 | 998.5 |
| 20260505055909 | 34 | 57 | 3.0 | 3.0 | 0.00 | 0.01 | 0.01 | 95 | 998.4 |
| 20260505055406 | 34 | 77 | 2.0 | 3.0 | 0.00 | 0.01 | 0.01 | 95 | 998.5 |
| 20260505054903 | 34 | 83 | 2.0 | 3.0 | 0.00 | 0.01 | 0.01 | 95 | 998.5 |
| 20260505054400 | 34 | 46 | 4.0 | 4.0 | 0.00 | 0.01 | 0.01 | 95 | 998.5 |
| 20260505053858 | 34 | 43 | 4.0 | 4.0 | 0.02 | 0.01 | 0.01 | 95 | 998.5 |
| 20260505053355 | 34 | 87 | 3.0 | 4.0 | 0.02 | 0.01 | 0.01 | 94 | 998.3 |
| 20260505052852 | 34 | 64 | 4.0 | 5.0 | 0.00 | 0.01 | 0.01 | 94 | 998.2 |
| 20260505052348 | 34 | 61 | 3.0 | 3.0 | 0.00 | 0.01 | 0.01 | 94 | 998.4 |
| 20260505051846 | 34 | 47 | 4.0 | 4.0 | 0.00 | 0.01 | 0.01 | 94 | 998.3 |
| 20260505051343 | 34 | 60 | 4.0 | 4.0 | 0.00 | 0.01 | 0.01 | 94 | 998.2 |
| 20260505050841 | 34 | 61 | 4.0 | 5.0 | 0.00 | 0.01 | 0.01 | 93 | 998.2 |
| 20260505050339 | 35 | 61 | 5.0 | 5.0 | 0.00 | 0.01 | 0.01 | 93 | 998.1 |
| 20260505041306 | 35 | 80 | 2.0 | 2.0 | 0.00 | 0.00 | 0.00 | 95 | 997.9 |
| 20260505040803 | 35 | 80 | 2.0 | 3.0 | 0.00 | 0.00 | 0.00 | 95 | 998.0 |
| 20260505040301 | 35 | 67 | 3.0 | 3.0 | 0.00 | 0.00 | 0.00 | 96 | 998.1 |
| 20260505035758 | 35 | 50 | 0.0 | 2.0 | 0.02 | 0.00 | 0.00 | 96 | 998.0 |
| 20260505035253 | 35 | 60 | 4.0 | 4.0 | 0.00 | 0.00 | 0.00 | 96 | 998.0 |
| 20260505034751 | 35 | 70 | 3.0 | 4.0 | 0.00 | 0.00 | 0.00 | 96 | 998.0 |
| 20260505034247 | 35 | 67 | 2.0 | 3.0 | 0.00 | 0.00 | 0.00 | 96 | 998.0 |
| 20260505033744 | 35 | 73 | 3.0 | 3.0 | 0.00 | 0.00 | 0.00 | 96 | 998.1 |
| 20260505033242 | 35 | 85 | 2.0 | 3.0 | 0.00 | 0.00 | 0.00 | 96 | 997.9 |
| 20260505032740 | 35 | 77 | 3.0 | 3.0 | 0.00 | 0.00 | 0.00 | 96 | 997.8 |
| 20260505032235 | 35 | 71 | 4.0 | 4.0 | 0.00 | 0.00 | 0.00 | 96 | 998.0 |
| 20260505031733 | 34 | 63 | 4.0 | 5.0 | 0.00 | 0.00 | 0.00 | 96 | 998.0 |
| 20260505031229 | 34 | 72 | 4.0 | 4.0 | 0.00 | 0.00 | 0.00 | 96 | 997.9 |
| 20260505030726 | 34 | 65 | 4.0 | 5.0 | 0.00 | 0.00 | 0.00 | 96 | 997.8 |
| 20260505030222 | 34 | 65 | 4.0 | 5.0 | 0.00 | 0.00 | 0.00 | 95 | 997.8 |
| 20260505025718 | 34 | 71 | 3.0 | 4.0 | 0.00 | 0.00 | 0.00 | 95 | 997.8 |